{"data":{"norad_id":59685,"intl_designator":"2024-086D","name":"STARLINK-32085","alt_names":[],"object_type":"PAYLOAD","status":"ACTIVE","operator":null,"country":"US","launch_date":"2024-05-08","launch_site_code":"AFETR","launch_vehicle":null,"mission":null,"orbit_class":"UNKNOWN","rcs_meters":null,"size_class":null,"mass_kg":null,"dimensions":null,"purposes":["comms"],"wikipedia_slug":null,"has_3d_model":false,"image_url":null,"decayed_at":null,"tle_current":{"epoch":"2026-05-24T22:35:42.163008Z","epoch_age_seconds":86987,"freshness":"FRESH","line1":"1 59685U 24086D   26144.94146022  .00001192  00000+0  52837-4 0  9999","line2":"2 59685  43.0020 349.2855 0001142 277.1460  82.9262 15.27581411115770","mean_motion":15.27581411,"eccentricity":0.0001142,"inclination_deg":43.002,"raan_deg":349.2855,"arg_perigee_deg":277.146,"mean_anomaly_deg":82.9262,"bstar":5.2837e-5,"rev_number":11577,"period_min":94.266661641119,"perigee_km":482.26132403163,"apogee_km":483.82841797097,"semimajor_km":6861.1818710013,"source":"CELESTRAK","updated_at":"2026-05-25T13:38:19.023482Z"}}}